Back to catalog

AO-123

AliveAmateur RadioSSO
NORAD 61781·PAYLOAD·🇨🇳 China

Launched Nov 4, 2024 from Vostochny Cosmodrome

Loading…

Next Passes (next 24 hours)

TLE

FreshSource: AMSAT

Epoch: Sep 14, 2026, 09:36 UTC

1 61781U 24199AY  26257.40038133  .00006324  00000-0  17744-3 0  9993
2 61781  97.2844 125.2724 0013160 356.3714   3.7432 15.36835594147620

Track AO-123 in real time with AllMySat

Download on the App Store